Location: Colonia Mina de C?rbuni
(46.1667°N, 22.7167°E)
Time: 06:55:54
(UTC+00:00)

Cosmos 2322 Rocket - Pass Details

Date: 04 February 2023
Orbit: 832 x 851 km, 71.0° (Epoch: 21 March)

Event Time Altitude Azimuth Distance (km) Brightness Sun altitude
Rises 18:01:17 0° 240° (WSW) 3,368 6.2 -25.0°
Reaches altitude 10° 18:04:03 10° 252° (WSW) 2,438 5.5 -25.5°
Maximum altitude 18:08:49 28° 310° (NW) 1,521 4.0 -26.3°
Drops below altitude 10° 18:13:37 10° 9° (N) 2,455 4.6 -27.2°
Enters shadow 18:14:05 - 12° (NNE) 2,603 4.7 -27.2°
